Wind_Speed
46 48 49 50 48 47 45 44 44 43 40 37 32 36 39 41 42 41 40 39 37 38 37 36 35 33 31 30 29 26 23 20 21 21 22 22 21 18 18 18 22 23 24
50 49 51 53 54 56 55 55 53 49 48 44 45 50 47 44 45 44 44 43 42 41 40 38 37 36 33 31 31 29 27 25 23 21 22 22 23 20 19 18 20 23 23
55 53 55 57 57 59 58 56 56 51 50 48 47 49 52 51 50 49 46 49 48 44 42 41 41 37 34 32 33 31 29 28 26 23 23 22 24 23 20 19 20 23 24
57 57 58 59 61 61 61 61 60 55 53 52 48 51 50 58 48 39 53 56 53 50 45 44 43 41 34 33 34 31 30 29 28 25 24 23 24 24 22 19 20 22 25
61 61 62 63 65 67 69 64 62 65 61 61 55 52 58 48 52 43 49 45 54 56 45 45 43 37 31 33 35 34 32 31 29 26 25 25 24 23 22 20 20 22 23
64 65 65 65 67 69 74 73 76 72 71 66 66 62 53 57 48 47 46 54 51 46 45 46 44 39 37 36 33 35 34 33 32 28 26 25 25 23 22 19 20 21 23
67 69 69 69 70 72 74 75 75 75 78 71 69 68 66 57 62 52 53 51 50 49 47 50 39 40 40 38 36 35 36 37 35 31 28 27 25 22 22 19 20 20 21
66 69 71 74 73 73 75 76 78 78 80 84 77 73 67 70 75 66 60 61 58 55 47 48 44 39 37 39 37 41 36 37 38 33 29 27 24 21 20 19 20 20 20
60 64 68 72 74 74 72 74 77 79 81 81 78 76 74 74 57 59 66 70 66 56 54 50 41 37 41 35 34 36 29 20 27 33 30 28 25 21 19 18 19 20 20
58 59 57 63 68 71 71 71 70 75 78 79 80 76 79 80 73 58 67 70 71 64 51 49 41 40 40 36 32 27 26 28 30 23 29 27 25 20 19 19 20 20 20
52 54 55 57 57 60 61 63 66 69 69 73 76 78 77 82 76 70 52 45 62 48 45 54 53 50 47 44 42 37 33 28 28 29 27 27 26 20 19 20 20 20 21
46 47 49 50 56 60 58 57 60 61 65 67 69 72 77 77 77 85 86 85 80 67 62 47 53 49 46 46 42 41 40 36 35 32 32 29 26 24 20 20 19 21 21
43 45 43 46 51 48 56 57 54 56 55 57 61 61 66 72 73 75 72 65 59 63 58 48 46 59 53 48 48 46 46 40 38 36 33 32 29 27 24 21 20 19 21
36 36 39 42 42 47 47 48 54 54 53 53 53 54 56 59 63 59 58 61 65 74 72 62 61 63 61 57 49 50 53 45 40 39 38 35 33 30 27 27 22 20 20
31 29 30 33 38 39 39 43 49 49 54 54 52 52 54 58 54 53 49 54 59 61 63 65 64 63 64 74 60 54 54 51 48 41 39 38 41 36 33 32 27 21 21
26 27 26 26 28 31 35 34 37 44 49 52 52 52 49 49 57 57 51 53 58 64 64 61 60 60 61 56 50 53 56 54 57 49 47 44 42 40 37 36 29 24 24
25 24 24 25 25 24 26 27 30 35 41 46 49 52 51 49 51 59 56 54 60 60 61 63 61 63 61 58 59 58 58 61 60 53 45 49 46 44 42 38 32 28 27
25 22 23 23 21 23 23 23 24 27 31 35 42 46 51 54 54 59 60 59 59 61 62 61 58 59 65 69 65 65 68 67 63 60 56 52 52 47 43 41 37 31 30
23 22 21 21 22 23 22 22 24 24 25 28 32 38 44 51 53 59 64 65 63 63 63 62 61 59 59 65 70 73 75 72 68 64 57 54 53 51 49 45 41 36 36
21 20 20 21 22 20 18 17 19 22 25 26 27 28 31 35 39 45 52 56 58 60 62 65 69 69 67 68 68 67 67 71 74 71 72 67 60 55 51 47 46 43 40
16 18 16 17 17 14 13 13 12 16 20 24 26 28 29 28 28 29 33 38 39 41 45 51 57 63 66 75 76 75 70 66 62 63 70 74 69 66 61 58 53 48 43
13 10 10 10 7 6 9 10 10 11 11 13 16 19 21 20 21 23 25 29 34 38 41 43 50 56 59 65 71 80 78 72 67 61 59 65 66 67 65 64 59 53 46
16 14 11 7 4 6 8 8 7 8 9 11 15 18 20 20 20 20 21 23 27 29 32 36 40 41 46 53 63 69 80 74 69 68 64 59 59 63 64 63 61 57 51
13 10 9 9 8 5 5 7 9 10 11 12 13 14 16 16 16 17 18 20 20 20 22 27 29 27 32 38 51 59 71 68 64 60 57 59 55 53 57 62 61 58 55
15 13 11 10 9 9 9 10 11 11 11 12 13 14 16 17 17 17 16 16 16 17 17 17 18 17 21 28 39 51 61 60 58 52 52 53 52 54 54 55 61 61 56
14 15 15 16 15 14 15 15 16 16 16 15 14 14 17 19 21 19 17 17 17 17 17 17 17 16 19 22 33 51 58 59 56 52 49 50 52 53 54 54 55 53 54
Wind_Direction
245 247 247 249 255 256 257 258 258 257 260 267 258 257 255 254 255 253 251 252 253 254 255 255 256 258 261 266 272 279 287 294 303 313 311 306 306 311 315 308 302 301 298
250 249 251 255 256 258 259 260 259 257 261 263 260 260 253 246 248 250 252 250 250 252 254 256 257 258 260 266 271 275 280 285 291 300 309 307 297 301 305 308 302 303 296
251 250 249 250 252 254 256 257 260 259 258 260 260 262 263 252 243 243 246 248 245 246 250 252 253 253 257 263 268 272 275 280 283 290 300 312 297 293 296 301 298 297 299
258 256 253 251 250 250 254 254 257 258 257 259 257 258 264 265 251 250 245 242 245 243 244 248 252 249 246 255 264 267 271 276 279 283 292 304 304 290 292 296 296 297 297
259 257 255 253 251 252 252 253 254 256 257 256 254 257 263 251 254 248 245 241 249 243 244 252 256 257 258 252 258 265 266 270 275 281 286 293 303 291 287 291 291 294 299
262 260 257 254 252 250 251 252 251 255 256 258 258 258 256 253 251 242 247 250 265 230 254 249 250 253 252 252 255 260 262 265 269 274 280 286 295 293 284 285 283 289 293
262 261 259 257 253 251 250 250 251 248 246 248 252 255 256 253 257 250 248 255 254 252 263 261 264 248 247 255 254 254 259 264 267 266 274 280 285 292 282 282 278 281 287
265 261 257 255 254 251 250 249 249 249 248 249 251 249 252 251 246 246 245 249 253 254 257 257 257 250 246 251 255 257 260 263 263 261 263 273 277 288 279 277 272 274 281
269 262 258 256 255 254 252 249 247 247 248 249 250 247 250 249 246 240 245 248 253 245 251 251 248 252 243 241 249 251 259 247 262 257 256 267 268 281 278 273 269 268 272
272 271 268 259 254 252 252 250 248 247 246 247 248 248 247 251 249 254 234 239 248 244 242 242 234 240 233 239 235 235 242 256 258 263 249 254 258 270 276 270 266 264 266
272 266 263 263 262 255 251 249 248 246 246 246 245 246 248 248 251 243 217 236 224 239 243 241 238 240 238 242 238 242 249 250 262 253 241 239 247 257 268 266 265 267 264
277 272 265 264 262 257 255 251 247 248 245 246 247 246 245 245 247 246 254 254 253 254 251 237 238 242 245 247 250 243 242 246 259 250 238 232 240 250 260 262 262 267 266
279 274 273 266 262 262 256 250 248 243 243 243 245 245 247 248 248 247 250 248 250 234 244 234 244 249 246 244 246 247 239 244 250 250 244 232 233 242 250 256 251 259 266
287 281 273 267 267 262 259 254 246 246 243 242 236 239 241 244 248 249 245 240 235 238 248 245 248 243 244 231 245 245 250 240 248 245 246 232 234 241 242 251 247 248 255
294 289 280 272 265 263 261 256 250 245 242 242 238 234 236 235 239 239 239 240 238 235 235 234 234 240 247 248 257 246 242 238 238 239 243 241 238 236 238 244 243 246 247
296 285 279 277 270 263 259 257 251 246 244 242 240 237 238 238 236 233 238 239 238 231 227 229 231 234 237 240 243 239 237 247 235 235 239 243 237 235 233 239 241 245 247
302 292 286 280 276 274 267 259 256 254 248 245 240 236 236 239 238 236 241 242 234 234 233 228 226 227 228 228 229 236 237 238 238 229 233 237 238 231 230 233 240 245 246
295 296 286 284 284 276 271 268 261 253 252 249 245 242 241 240 237 232 236 239 238 236 235 233 238 235 230 228 226 225 218 221 229 233 226 234 232 231 230 232 237 240 244
289 283 284 291 282 273 271 267 261 257 253 247 243 242 243 242 237 233 235 240 240 239 241 241 240 236 230 231 230 225 226 224 220 219 219 227 229 226 227 230 233 238 241
283 286 288 286 288 268 264 272 264 256 253 253 249 244 241 240 239 240 241 242 244 246 245 244 244 241 235 228 227 227 230 232 232 228 224 223 226 227 230 227 232 234 237
299 298 296 292 295 255 256 274 273 265 253 249 244 242 245 249 251 250 245 242 240 242 245 245 245 244 240 234 228 228 229 229 226 228 230 223 220 223 228 229 225 230 230
358 338 322 311 287 245 255 260 269 269 259 249 243 241 239 241 238 235 233 233 234 238 242 244 244 241 239 234 231 226 226 225 228 230 229 230 230 223 221 223 221 222 223
360 6 12 8 341 302 274 265 256 257 254 258 253 246 244 241 238 232 229 231 234 237 241 247 252 248 239 233 229 225 220 222 225 228 229 232 229 228 225 222 220 220 222
358 359 1 2 353 333 293 269 272 274 277 273 265 248 231 223 228 232 233 234 238 239 244 251 262 254 238 232 222 218 215 218 222 225 226 226 225 222 224 226 226 224 223
332 333 332 330 317 314 309 301 281 286 284 281 263 247 227 229 233 232 228 227 230 239 243 245 250 251 238 221 211 209 210 215 217 219 217 216 216 215 216 220 224 225 225
323 316 313 311 305 295 299 300 292 279 277 274 260 247 242 241 240 236 231 232 236 239 243 240 236 232 229 222 211 212 213 214 217 214 215 214 214 216 218 217 216 216 221
Height
5775 5776 5778 5780 5780 5781 5783 5784 5786 5787 5788 5789 5789 5790 5791 5793 5794 5797 5799 5801 5803 5805 5807 5809 5811 5813 5815 5816 5817 5818 5817 5816 5815 5812 5810 5808 5807 5806 5804 5802 5799 5798 5795
5761 5762 5763 5764 5765 5767 5769 5771 5772 5775 5775 5778 5778 5778 5777 5779 5781 5784 5787 5790 5792 5793 5795 5799 5801 5804 5806 5807 5809 5810 5812 5811 5811 5809 5805 5803 5802 5801 5800 5798 5796 5794 5792
5744 5746 5747 5748 5750 5752 5754 5756 5756 5760 5761 5763 5765 5766 5766 5766 5769 5770 5774 5776 5777 5781 5784 5788 5791 5794 5796 5799 5801 5803 5804 5805 5805 5803 5801 5798 5797 5796 5795 5795 5792 5790 5787
5724 5726 5729 5731 5732 5735 5737 5739 5740 5744 5746 5747 5750 5753 5754 5755 5757 5759 5755 5758 5765 5767 5772 5774 5780 5784 5787 5790 5792 5794 5796 5797 5797 5797 5795 5793 5792 5791 5790 5790 5788 5786 5783
5706 5707 5709 5711 5713 5715 5718 5721 5723 5726 5730 5733 5735 5739 5742 5742 5737 5737 5747 5743 5750 5755 5760 5763 5769 5775 5778 5781 5784 5785 5787 5788 5789 5790 5789 5788 5787 5785 5785 5785 5783 5781 5779
5683 5685 5687 5689 5692 5694 5697 5701 5704 5706 5710 5715 5719 5723 5726 5731 5736 5738 5735 5742 5730 5728 5742 5750 5757 5763 5767 5771 5775 5776 5779 5780 5781 5782 5782 5782 5782 5780 5779 5779 5778 5777 5775
5660 5661 5663 5665 5667 5670 5674 5678 5681 5686 5691 5694 5701 5705 5710 5713 5718 5721 5726 5724 5729 5728 5736 5742 5747 5752 5756 5761 5764 5767 5769 5772 5773 5774 5775 5776 5776 5775 5773 5773 5773 5772 5771
5635 5636 5637 5639 5641 5644 5648 5654 5658 5662 5668 5675 5680 5686 5691 5694 5699 5703 5711 5714 5713 5719 5724 5732 5736 5739 5744 5750 5753 5757 5759 5762 5764 5765 5767 5768 5769 5769 5768 5768 5767 5767 5766
5607 5608 5609 5612 5615 5618 5622 5627 5633 5638 5644 5649 5656 5665 5669 5674 5676 5686 5692 5695 5703 5708 5713 5719 5722 5728 5734 5739 5742 5745 5749 5751 5754 5755 5759 5761 5762 5763 5762 5763 5762 5762 5762
5587 5586 5586 5586 5588 5592 5595 5600 5606 5612 5619 5626 5633 5641 5647 5652 5663 5666 5672 5677 5682 5690 5697 5703 5709 5717 5723 5726 5731 5733 5738 5742 5745 5747 5750 5753 5754 5756 5756 5757 5757 5757 5757
5566 5566 5566 5566 5567 5569 5572 5576 5582 5588 5596 5602 5610 5619 5627 5633 5641 5652 5651 5662 5663 5674 5680 5687 5695 5702 5707 5713 5719 5724 5728 5731 5736 5741 5741 5743 5746 5748 5750 5751 5751 5752 5752
5550 5548 5548 5548 5547 5549 5552 5556 5561 5567 5574 5581 5587 5596 5604 5612 5619 5628 5630 5637 5643 5654 5663 5672 5679 5685 5692 5699 5706 5712 5715 5721 5726 5731 5734 5734 5738 5740 5742 5744 5746 5747 5748
5535 5533 5532 5530 5530 5530 5532 5537 5542 5547 5553 5561 5568 5576 5583 5590 5598 5605 5612 5621 5630 5638 5645 5654 5662 5670 5676 5684 5691 5699 5704 5710 5715 5720 5725 5725 5728 5732 5735 5737 5738 5740 5743
5522 5519 5517 5515 5515 5514 5515 5518 5524 5530 5536 5543 5549 5557 5564 5570 5577 5584 5592 5601 5611 5622 5628 5635 5646 5656 5662 5669 5677 5684 5694 5696 5705 5709 5714 5715 5719 5725 5727 5730 5731 5732 5736
5511 5508 5504 5502 5501 5501 5501 5503 5507 5513 5519 5526 5533 5539 5545 5554 5562 5566 5572 5581 5589 5598 5605 5615 5626 5638 5646 5653 5660 5668 5677 5684 5691 5697 5701 5705 5709 5713 5718 5721 5724 5725 5728
5500 5497 5494 5491 5489 5489 5489 5491 5493 5497 5503 5509 5516 5523 5530 5537 5542 5550 5556 5562 5568 5575 5583 5597 5608 5617 5628 5634 5641 5649 5659 5669 5677 5682 5687 5694 5699 5703 5707 5712 5716 5717 5720
5493 5488 5485 5483 5481 5480 5480 5481 5483 5485 5488 5493 5500 5507 5515 5522 5527 5534 5541 5546 5551 5557 5568 5577 5587 5596 5604 5611 5621 5630 5638 5650 5658 5666 5671 5681 5687 5691 5695 5701 5707 5710 5712
5486 5482 5479 5477 5475 5474 5473 5474 5475 5477 5479 5482 5487 5492 5499 5506 5512 5519 5525 5529 5536 5543 5554 5562 5570 5577 5584 5592 5600 5609 5618 5627 5638 5649 5657 5667 5674 5681 5685 5690 5697 5701 5704
5476 5474 5472 5470 5468 5467 5467 5467 5468 5469 5471 5474 5476 5480 5485 5490 5496 5502 5507 5512 5521 5529 5536 5542 5550 5558 5566 5573 5582 5589 5600 5609 5616 5630 5639 5651 5659 5666 5673 5678 5685 5690 5696
5467 5466 5465 5463 5461 5460 5461 5461 5461 5462 5463 5465 5468 5471 5473 5475 5480 5486 5491 5497 5503 5510 5516 5522 5528 5535 5544 5553 5561 5569 5579 5589 5599 5609 5620 5633 5642 5651 5660 5665 5672 5679 5686
5462 5460 5458 5457 5454 5454 5455 5456 5454 5454 5455 5456 5459 5461 5464 5468 5471 5474 5478 5483 5488 5494 5498 5502 5505 5510 5517 5528 5539 5548 5559 5570 5581 5592 5602 5613 5621 5635 5644 5654 5659 5666 5675
5459 5456 5454 5452 5451 5451 5452 5452 5451 5451 5451 5452 5453 5455 5458 5461 5463 5465 5468 5472 5476 5479 5482 5484 5485 5488 5493 5502 5512 5525 5539 5552 5564 5577 5587 5597 5607 5617 5627 5637 5646 5653 5662
5461 5457 5454 5452 5451 5450 5449 5449 5448 5448 5448 5448 5449 5450 5452 5454 5456 5458 5460 5463 5466 5469 5471 5472 5472 5472 5475 5482 5491 5502 5518 5536 5550 5561 5572 5581 5593 5603 5613 5622 5632 5641 5648
5462 5459 5456 5453 5451 5449 5448 5447 5446 5445 5445 5444 5444 5444 5445 5447 5450 5452 5454 5456 5458 5460 5463 5464 5463 5462 5463 5466 5473 5486 5504 5521 5536 5548 5557 5567 5577 5588 5598 5609 5618 5628 5636
5462 5458 5455 5452 5450 5448 5446 5444 5442 5441 5440 5439 5438 5439 5441 5443 5444 5446 5448 5450 5453 5455 5456 5457 5458 5459 5459 5463 5471 5482 5497 5512 5525 5536 5545 5554 5563 5574 5584 5594 5604 5614 5625
5458 5455 5453 5450 5447 5444 5441 5439 5438 5436 5435 5434 5433 5433 5435 5436 5438 5440 5442 5445 5447 5449 5451 5453 5454 5456 5459 5463 5470 5480 5491 5502 5512 5523 5532 5542 5551 5561 5571 5580 5590 5601 5612